Wind_Speed
47 49 49 48 49 49 49 49 49 48 48 48 48 46 45 44 44 44 44 43 41 40 41 41 40 40 40 39 39 38 38 38 37 37 36 36 35 35 34 34 34 34 35 35
47 49 47 47 48 49 49 50 50 50 49 49 49 48 46 46 45 45 44 43 42 41 41 41 41 40 40 40 39 39 39 38 38 38 38 38 37 37 37 37 37 37 37 37
47 46 48 48 48 48 48 48 48 49 49 50 50 50 48 47 46 45 45 44 43 42 42 42 42 41 41 40 40 40 40 40 40 39 39 39 39 39 39 39 39 39 39 39
47 47 48 48 48 48 48 47 47 48 49 50 50 50 49 48 47 46 45 44 44 43 43 43 42 42 41 41 41 41 41 41 41 41 40 40 40 40 40 40 40 40 40 40
46 47 47 48 47 47 47 46 46 47 49 50 51 51 49 48 47 45 45 45 44 44 43 43 43 42 42 42 42 42 42 42 42 41 41 41 41 41 41 40 41 41 41 41
44 45 46 46 45 46 46 46 46 47 48 51 50 51 50 48 47 46 46 45 45 44 44 43 43 43 43 43 44 43 43 42 42 41 42 41 41 41 41 41 41 42 42 42
42 44 45 46 45 46 46 46 46 47 49 50 49 51 50 48 48 47 47 46 46 45 45 44 43 44 44 44 44 43 43 43 42 42 42 42 42 42 42 42 42 43 43 43
41 42 43 44 45 44 44 45 45 46 47 47 47 49 49 48 47 47 47 46 46 46 45 45 44 44 44 44 44 44 44 43 43 43 43 43 43 43 44 44 44 44 44 44
39 40 42 42 42 43 43 43 43 43 46 46 46 46 46 46 45 45 46 46 46 46 45 45 44 44 45 45 45 45 45 45 44 44 45 44 44 45 45 45 44 44 45 45
37 38 40 41 41 42 42 41 42 43 44 46 46 45 44 43 42 43 43 44 45 45 46 45 45 44 45 45 45 45 45 45 45 45 45 46 45 46 46 45 46 46 46 47
35 37 38 39 40 40 41 41 42 42 43 44 45 44 42 42 41 41 41 42 42 43 44 44 45 44 45 45 45 45 45 45 46 46 46 46 46 46 46 46 46 47 47 48
33 35 36 38 39 40 40 40 40 41 41 42 42 43 41 40 40 40 40 41 41 41 42 43 44 44 44 45 45 45 45 46 46 46 46 46 46 46 46 47 47 48 48 47
31 33 34 36 38 39 40 40 41 41 42 41 41 41 39 39 39 39 40 40 41 41 41 42 43 44 44 44 45 45 45 45 46 46 46 46 46 46 46 47 47 47 47 46
30 32 33 35 36 38 38 39 40 41 42 42 41 40 38 38 39 39 40 40 40 41 42 42 43 44 44 44 44 44 45 45 45 46 46 45 45 46 46 46 47 47 46 45
28 29 31 33 34 36 37 37 38 39 40 41 40 40 39 39 39 39 39 39 39 40 41 42 43 43 44 44 44 44 44 44 45 45 45 45 45 45 45 46 46 46 45 45
26 28 30 31 33 35 36 36 37 38 38 39 40 40 39 38 38 39 39 38 39 40 41 42 42 43 44 44 45 45 45 45 44 44 44 44 45 45 44 44 45 45 45 45
24 26 28 29 31 33 35 35 36 36 36 37 38 38 39 38 38 38 39 38 38 39 40 41 42 43 43 44 44 44 45 45 44 44 43 43 43 43 43 43 43 44 44 45
24 25 26 27 29 32 32 33 34 34 34 35 36 36 37 37 37 38 39 39 38 38 39 40 41 41 42 43 43 44 44 43 43 43 42 42 42 42 42 42 42 42 43 44
23 24 25 26 28 30 30 31 32 33 33 33 34 35 36 37 37 37 38 39 38 37 37 38 40 41 41 42 43 43 43 43 43 42 42 43 43 43 43 42 42 42 43 43
22 23 25 26 27 27 27 28 30 31 31 31 32 32 34 35 36 35 36 37 37 36 36 36 37 39 40 41 41 42 42 42 42 43 43 43 44 43 43 43 43 43 43 43
20 21 23 24 25 25 25 26 28 29 29 29 30 30 31 32 34 35 35 35 36 36 36 37 37 37 38 39 40 41 41 42 42 42 42 43 43 43 43 43 43 43 42 42
19 20 21 22 23 23 24 24 26 26 27 28 28 29 30 31 32 34 35 36 35 35 36 36 36 37 37 37 38 39 39 40 41 41 42 42 43 43 43 43 42 41 41 41
19 20 20 21 21 21 22 23 25 25 26 27 27 28 29 30 32 33 34 35 36 36 35 35 36 36 37 37 37 38 38 39 39 40 40 41 41 41 41 40 40 40 40 40
17 18 20 20 21 22 22 23 23 24 24 25 26 26 27 29 30 31 33 35 36 36 36 35 35 35 35 36 37 38 38 39 39 39 39 39 39 39 39 39 39 39 40 40
17 18 19 20 20 22 22 23 23 23 23 24 24 25 26 27 28 29 31 32 33 34 35 35 36 36 36 36 37 37 38 38 38 38 38 38 38 38 38 38 38 39 39 39
18 18 19 19 19 20 22 23 23 24 25 25 25 25 26 27 28 29 30 31 32 33 33 34 35 35 35 36 36 37 38 38 38 38 37 37 37 38 38 38 38 38 37 37
Wind_Direction
231 231 232 233 234 235 235 235 234 235 235 235 235 235 235 235 236 236 237 238 239 238 238 238 238 239 240 242 243 244 245 246 247 248 250 251 253 255 258 260 262 263 265 268
230 231 231 232 233 234 234 234 234 235 235 236 235 235 234 235 236 236 237 237 238 238 238 239 239 240 241 242 243 244 245 246 248 249 250 251 253 256 258 261 262 264 266 268
231 231 231 231 232 233 234 235 235 236 236 236 236 235 234 235 236 236 237 238 238 238 239 239 240 240 241 241 242 244 245 247 248 249 250 252 254 256 258 261 263 265 266 268
230 229 230 231 232 233 233 234 236 236 236 236 236 237 233 234 236 236 237 238 238 239 239 240 241 241 241 242 242 244 246 247 249 250 251 253 255 257 259 261 263 265 267 268
230 229 229 230 232 233 232 234 236 237 237 238 237 238 234 234 235 236 237 237 238 239 240 240 241 241 242 243 244 245 246 247 249 250 251 253 255 257 260 262 264 265 267 268
229 230 230 231 231 232 232 233 235 237 238 239 238 240 238 236 236 236 237 238 238 238 240 241 241 242 243 244 245 245 246 247 249 250 252 254 256 258 261 263 265 266 268 269
227 229 229 229 229 230 231 232 234 236 237 239 239 240 240 238 238 237 237 238 238 239 240 241 242 243 244 244 245 246 246 248 249 251 253 255 257 259 262 264 265 267 268 269
228 228 228 229 229 229 231 233 235 238 240 240 240 240 240 240 239 239 238 238 239 240 241 242 242 243 244 245 246 246 247 249 250 252 254 256 258 260 263 265 266 268 269 270
228 229 229 230 230 230 230 232 234 238 240 241 241 241 240 240 241 240 240 240 240 240 240 241 242 243 244 245 246 248 249 250 251 253 255 257 259 261 263 265 266 268 270 271
229 230 229 229 229 230 231 233 234 236 239 241 242 242 242 241 242 242 242 241 241 241 240 241 242 243 244 245 246 248 249 251 252 254 256 257 259 261 263 265 267 269 270 272
229 230 230 229 229 230 230 232 234 236 239 242 243 243 242 243 242 243 242 241 240 240 240 241 242 243 244 245 247 249 250 251 253 255 257 258 260 261 263 265 267 269 271 272
230 230 230 230 231 231 232 233 235 236 239 241 244 244 243 244 243 243 243 242 242 241 241 240 241 242 243 245 247 248 250 252 253 254 256 258 260 262 264 265 267 269 271 272
231 232 231 230 231 231 232 232 234 236 238 240 243 244 244 245 245 244 244 243 242 242 241 240 240 241 242 244 246 248 250 252 254 255 257 259 261 263 265 266 267 268 270 271
233 235 234 234 235 234 234 234 235 237 238 240 242 244 243 245 245 245 245 244 243 242 241 241 241 241 243 244 246 248 250 252 254 256 258 260 262 263 265 266 268 269 269 270
234 235 236 235 234 234 235 234 234 236 238 239 240 243 243 244 245 245 244 243 243 242 241 241 242 242 244 245 246 248 250 252 254 256 257 259 261 264 265 267 268 269 269 270
235 236 236 235 234 234 235 233 234 236 237 238 239 241 242 244 244 244 244 243 243 243 243 243 244 244 245 246 247 248 250 252 254 256 258 260 262 264 265 267 268 268 268 270
238 237 236 236 236 236 235 233 234 236 238 239 241 242 243 243 244 244 243 243 244 243 244 244 245 245 247 249 249 249 250 251 253 255 257 260 262 264 265 266 267 268 269 271
236 237 237 239 238 239 237 235 236 237 238 238 240 241 242 243 244 244 244 243 244 245 244 245 245 246 247 248 249 250 250 251 253 255 257 260 262 263 264 266 267 269 271 272
237 237 239 239 239 239 238 237 237 238 239 240 240 241 243 244 245 244 244 244 244 245 245 245 246 247 246 247 248 249 250 252 253 254 257 259 261 263 264 265 267 270 271 272
238 238 239 238 240 240 238 238 239 240 241 240 242 242 243 244 244 243 243 243 244 245 246 246 247 247 247 246 246 247 249 252 254 255 258 260 262 263 264 266 268 270 271 272
237 237 237 238 240 241 239 239 239 241 241 242 243 243 242 243 243 242 242 242 244 245 246 247 248 248 248 247 247 247 250 252 254 257 259 260 262 263 265 267 269 271 271 272
237 236 236 238 239 239 240 241 240 241 242 244 246 246 244 243 242 242 242 242 244 245 245 247 248 248 249 250 250 251 252 253 255 258 260 261 261 263 264 266 268 270 271 272
239 236 236 237 237 238 239 242 242 243 244 245 246 247 246 245 244 243 242 243 244 245 246 247 248 249 250 251 251 252 253 255 257 259 260 261 261 263 265 266 267 269 270 271
239 237 237 236 234 237 239 241 243 244 245 245 245 246 247 247 246 246 246 245 246 247 248 248 249 250 250 251 252 253 255 257 259 259 260 261 261 263 265 267 268 270 271 273
243 242 240 238 239 241 242 243 244 245 246 246 246 247 248 249 249 249 249 249 248 248 249 250 251 252 253 254 255 256 258 259 261 262 263 263 263 264 265 268 270 271 272 274
246 245 244 241 242 246 246 245 246 246 246 247 248 248 249 251 251 252 252 250 249 250 252 253 253 253 254 256 257 258 260 261 262 263 263 264 265 267 268 268 269 270 271 273
Height
5622 5628 5634 5642 5648 5654 5659 5664 5670 5675 5680 5685 5690 5697 5702 5706 5711 5716 5720 5725 5729 5734 5737 5741 5745 5749 5752 5755 5759 5762 5765 5767 5770 5772 5774 5775 5777 5778 5780 5781 5782 5783 5783 5783
5613 5619 5627 5632 5637 5642 5648 5653 5659 5664 5669 5674 5680 5686 5692 5697 5702 5707 5711 5716 5721 5725 5729 5733 5737 5741 5744 5748 5751 5754 5757 5759 5761 5764 5766 5768 5769 5771 5772 5773 5774 5775 5775 5775
5604 5612 5616 5621 5627 5632 5638 5645 5650 5655 5659 5663 5669 5676 5683 5688 5693 5698 5703 5708 5712 5716 5720 5724 5728 5732 5736 5739 5742 5745 5748 5750 5753 5755 5757 5759 5761 5763 5764 5765 5766 5766 5766 5767
5593 5600 5606 5611 5617 5623 5629 5635 5640 5644 5648 5653 5659 5665 5674 5679 5684 5689 5694 5699 5703 5707 5711 5715 5719 5723 5727 5730 5733 5736 5739 5742 5744 5747 5749 5751 5753 5754 5755 5756 5757 5757 5758 5758
5584 5590 5596 5602 5609 5614 5620 5625 5629 5634 5638 5643 5649 5654 5664 5669 5675 5680 5685 5689 5694 5698 5702 5706 5710 5714 5717 5721 5724 5727 5730 5733 5735 5738 5740 5742 5744 5745 5746 5747 5748 5748 5749 5749
5575 5581 5587 5594 5600 5604 5609 5614 5619 5622 5626 5632 5640 5644 5653 5660 5666 5671 5676 5680 5684 5689 5693 5697 5701 5704 5708 5712 5715 5718 5721 5724 5726 5729 5731 5733 5734 5736 5737 5738 5738 5739 5739 5739
5566 5572 5578 5584 5589 5594 5600 5605 5609 5612 5616 5623 5631 5634 5643 5650 5656 5661 5666 5670 5674 5679 5683 5688 5691 5695 5698 5702 5705 5708 5712 5714 5717 5719 5722 5723 5725 5726 5727 5728 5728 5729 5729 5728
5558 5564 5570 5575 5581 5586 5592 5597 5602 5606 5610 5616 5620 5625 5635 5640 5646 5650 5655 5660 5665 5670 5674 5678 5681 5685 5689 5692 5696 5699 5702 5705 5707 5710 5712 5713 5715 5716 5717 5718 5718 5718 5718 5718
5551 5557 5562 5568 5573 5579 5583 5588 5594 5598 5601 5606 5610 5617 5625 5630 5635 5640 5645 5650 5655 5659 5663 5667 5671 5675 5679 5682 5686 5689 5692 5695 5697 5699 5701 5703 5705 5706 5706 5707 5707 5707 5707 5707
5543 5549 5554 5560 5565 5570 5576 5580 5585 5588 5592 5596 5602 5608 5616 5622 5626 5631 5635 5639 5644 5648 5653 5657 5661 5665 5669 5672 5676 5679 5681 5684 5687 5689 5691 5692 5694 5695 5695 5696 5696 5696 5695 5695
5536 5541 5547 5552 5557 5562 5568 5572 5576 5580 5584 5589 5594 5602 5607 5612 5617 5621 5625 5629 5633 5638 5642 5647 5651 5655 5658 5662 5665 5668 5671 5673 5676 5678 5680 5681 5683 5683 5684 5684 5684 5684 5684 5683
5529 5534 5539 5545 5550 5554 5559 5564 5569 5574 5577 5581 5586 5595 5599 5603 5607 5611 5615 5619 5623 5628 5632 5636 5640 5644 5648 5651 5655 5657 5660 5663 5665 5667 5669 5670 5671 5672 5672 5673 5672 5672 5671 5670
5523 5527 5532 5537 5543 5547 5551 5556 5561 5565 5569 5573 5578 5587 5590 5593 5597 5601 5605 5609 5614 5618 5622 5626 5630 5634 5637 5641 5644 5647 5649 5652 5654 5656 5658 5659 5660 5660 5661 5661 5660 5660 5659 5658
5517 5521 5527 5531 5535 5540 5544 5549 5553 5557 5561 5565 5571 5576 5581 5584 5587 5591 5596 5600 5604 5608 5612 5616 5620 5623 5627 5630 5633 5636 5639 5641 5643 5645 5646 5647 5648 5649 5649 5649 5649 5648 5647 5647
5511 5515 5519 5523 5528 5532 5536 5541 5545 5549 5553 5558 5563 5567 5572 5575 5578 5582 5586 5590 5594 5598 5602 5606 5609 5613 5616 5620 5623 5626 5628 5630 5632 5634 5635 5636 5637 5637 5638 5637 5637 5636 5636 5635
5506 5509 5513 5516 5520 5524 5528 5532 5536 5541 5545 5549 5553 5558 5562 5566 5569 5573 5576 5580 5584 5588 5592 5595 5599 5602 5606 5609 5612 5615 5617 5620 5622 5623 5625 5626 5626 5626 5626 5626 5625 5625 5624 5624
5501 5504 5507 5510 5513 5516 5521 5526 5529 5533 5537 5541 5545 5551 5553 5557 5560 5564 5568 5571 5575 5578 5582 5585 5588 5592 5595 5598 5601 5604 5606 5609 5611 5613 5614 5615 5615 5615 5615 5615 5614 5614 5613 5613
5496 5498 5501 5504 5507 5510 5517 5519 5522 5526 5530 5533 5537 5541 5544 5548 5551 5555 5559 5562 5565 5569 5572 5575 5578 5581 5584 5587 5590 5593 5595 5598 5600 5602 5603 5604 5604 5605 5605 5605 5604 5603 5603 5602
5491 5493 5495 5498 5500 5504 5509 5512 5515 5519 5522 5526 5529 5533 5536 5539 5542 5546 5549 5552 5556 5559 5562 5565 5568 5571 5574 5576 5579 5582 5584 5587 5589 5591 5592 5593 5594 5594 5594 5594 5594 5593 5592 5591
5486 5488 5491 5493 5495 5499 5504 5506 5508 5512 5515 5519 5522 5525 5528 5531 5534 5539 5540 5543 5546 5549 5552 5555 5558 5561 5563 5566 5568 5571 5574 5576 5578 5580 5581 5582 5583 5583 5583 5583 5583 5582 5581 5580
5481 5483 5485 5487 5490 5493 5497 5499 5502 5507 5510 5512 5514 5517 5520 5523 5526 5529 5531 5534 5537 5540 5543 5545 5548 5551 5553 5556 5558 5561 5563 5565 5567 5569 5570 5571 5571 5572 5572 5572 5572 5571 5571 5570
5477 5478 5480 5482 5485 5490 5491 5493 5497 5500 5502 5504 5507 5509 5512 5514 5517 5519 5522 5525 5528 5531 5534 5536 5539 5541 5544 5546 5548 5551 5553 5555 5557 5558 5559 5560 5560 5561 5561 5561 5561 5560 5560 5559
5473 5475 5476 5479 5483 5484 5485 5488 5490 5493 5495 5497 5500 5502 5504 5506 5509 5511 5514 5516 5519 5522 5524 5527 5530 5532 5534 5536 5539 5541 5543 5544 5546 5547 5548 5549 5549 5549 5550 5550 5550 5550 5549 5548
5469 5470 5472 5474 5476 5478 5480 5482 5484 5486 5488 5490 5492 5495 5497 5499 5501 5503 5505 5508 5510 5513 5515 5518 5520 5523 5525 5527 5529 5531 5533 5534 5536 5537 5537 5538 5539 5539 5539 5539 5539 5539 5538 5538
5465 5466 5467 5469 5471 5473 5475 5476 5478 5480 5482 5484 5486 5488 5490 5491 5493 5495 5497 5499 5501 5504 5506 5509 5511 5513 5515 5517 5519 5521 5522 5524 5525 5526 5527 5527 5528 5528 5529 5529 5528 5528 5528 5527
5461 5462 5463 5465 5466 5468 5469 5471 5472 5474 5475 5477 5479 5481 5482 5484 5486 5487 5489 5491 5493 5495 5497 5499 5501 5504 5505 5507 5509 5510 5512 5513 5514 5516 5516 5517 5518 5518 5518 5519 5519 5518 5517 5517